{"data":{"norad_id":56023,"intl_designator":"2023-042AP","name":"STARLINK-5771","alt_names":[],"object_type":"PAYLOAD","status":"ACTIVE","operator":null,"country":"US","launch_date":"2023-03-24","launch_site_code":"AFETR","launch_vehicle":null,"mission":null,"orbit_class":"UNKNOWN","rcs_meters":null,"size_class":null,"mass_kg":null,"dimensions":null,"purposes":["comms"],"wikipedia_slug":null,"has_3d_model":false,"image_url":null,"decayed_at":null,"tle_current":{"epoch":"2026-05-24T22:45:46.224288Z","epoch_age_seconds":76816,"freshness":"FRESH","line1":"1 56023U 23042AP  26144.94845167  .00001177  00000+0  52286-4 0  9990","line2":"2 56023  43.0021 334.9471 0001214 261.2352  98.8362 15.27591479174691","mean_motion":15.27591479,"eccentricity":0.0001214,"inclination_deg":43.0021,"raan_deg":334.9471,"arg_perigee_deg":261.2352,"mean_anomaly_deg":98.8362,"bstar":5.2286e-5,"rev_number":17469,"period_min":94.266040351486,"perigee_km":482.18178018005,"apogee_km":483.84766781864,"semimajor_km":6861.1517239993,"source":"CELESTRAK","updated_at":"2026-05-25T13:38:17.949015Z"}}}